Date,TemperatureHighF,TemperatureAvgF,TemperatureLowF,DewpointHighF,DewpointAvgF,DewpointLowF,HumidityHigh,HumidityAvg,HumidityLow,PressureMaxIn,PressureMinIn,WindSpeedMaxMPH,WindSpeedAvgMPH,GustSpeedMaxMPH,PrecipitationSumIn
2013-1-1,43.3,35.8,30.2,37.3,27.4,20.7,91,74,42,30.39,30.27,0,0,0,0.00
2013-1-2,45.5,33.4,27.3,35.0,22.2,6.0,94,68,20,30.27,30.09,0,0,0,0.04
2013-1-3,43.3,33.8,24.4,34.6,21.2,11.2,92,65,28,30.09,29.97,0,0,0,0.31
2013-1-4,46.9,42.0,37.0,39.2,36.1,31.7,95,80,56,30.18,30.06,0,0,0,0.00
2013-1-5,45.0,41.7,39.2,42.6,35.8,23.9,97,81,45,30.09,29.97,0,0,0,0.08
2013-1-6,44.4,42.5,40.5,38.0,32.7,28.0,86,69,53,30.06,29.85,0,0,0,0.04
2013-1-7,52.2,46.3,42.4,42.4,37.4,33.3,83,72,50,30.03,29.68,0,0,0,0.00
2013-1-8,51.6,45.7,40.6,45.8,40.5,36.6,95,82,62,30.03,29.59,0,0,0,0.75
2013-1-9,50.0,41.8,35.6,44.2,35.0,27.1,91,77,68,29.83,29.56,0,0,0,0.75
2013-1-10,37.9,35.5,31.3,32.9,29.6,26.7,90,79,65,30.00,29.83,0,0,0,0.04
2013-1-11,43.0,32.2,26.1,28.1,14.9,-0.7,90,53,19,30.21,30.00,0,0,0,0.00
2013-1-12,38.3,29.0,23.7,30.5,17.6,10.8,86,65,33,30.33,30.21,0,0,0,0.00
2013-1-13,36.5,30.3,24.8,26.5,19.9,13.4,85,67,39,30.39,30.33,0,0,0,0.00
2013-1-14,38.3,33.5,31.3,24.7,19.8,12.6,74,58,36,30.45,30.36,0,0,0,0.00
2013-1-15,39.9,35.4,29.1,30.0,25.4,23.1,83,67,51,30.59,30.45,0,0,0,0.00
2013-1-16,44.6,33.2,27.0,33.3,24.5,19.1,94,73,38,30.56,30.42,0,0,0,0.00
2013-1-17,37.4,33.9,28.6,35.0,31.1,25.8,97,89,77,30.42,30.18,0,0,0,0.00
2013-1-18,38.1,35.6,33.1,36.2,32.4,29.9,98,88,74,30.24,30.15,0,0,0,0.00
2013-1-19,39.9,37.3,35.1,32.3,29.3,24.0,84,73,54,30.27,30.21,0,0,0,0.00
2013-1-20,47.7,39.3,32.5,36.0,29.6,23.0,88,70,39,30.27,30.15,0,0,0,0.00
2013-1-21,39.2,37.2,34.2,36.0,31.2,25.1,88,79,60,30.18,30.03,0,0,0,0.00
2013-1-22,39.0,35.1,31.6,31.2,27.5,20.9,89,74,51,30.03,29.80,0,0,0,0.00
2013-1-23,42.6,40.1,36.5,39.1,34.1,29.4,90,79,65,30.00,29.74,0,0,0,0.28
2013-1-24,43.5,41.0,38.7,41.9,35.2,25.1,98,81,49,30.09,29.91,0,0,0,0.20
2013-1-25,50.9,43.8,35.4,42.1,33.3,24.6,98,69,38,29.94,29.80,0,0,0,0.00
2013-1-26,43.9,41.1,37.2,35.7,30.8,25.2,84,67,53,29.91,29.77,0,0,0,0.08
2013-1-27,42.6,38.2,33.3,35.1,30.4,26.1,90,74,52,29.94,29.85,0,0,0,0.00
2013-1-28,40.5,37.4,32.7,38.6,33.6,28.5,95,86,77,29.97,29.88,0,0,0,0.24
2013-1-29,47.7,42.7,39.4,44.6,39.9,36.8,98,90,70,30.21,29.97,0,0,0,0.28
2013-1-30,50.0,45.6,43.9,45.9,41.3,31.9,98,86,52,30.27,30.18,0,0,0,0.16
2013-1-31,50.9,47.1,45.3,45.5,40.0,31.6,98,78,49,30.27,30.15,0,0,0,0.04
2013-2-1,50.9,45.3,38.3,42.6,35.3,25.8,87,70,39,30.30,30.21,0,0,0,0.00
2013-2-2,47.3,42.8,37.8,40.9,32.3,25.7,95,67,43,30.27,30.15,0,0,0,0.00
2013-2-3,48.0,43.9,39.9,39.0,35.0,29.3,87,72,49,30.18,30.09,0,0,0,0.00
2013-2-4,49.6,45.7,43.3,38.9,32.4,24.4,83,61,38,30.09,29.77,0,0,0,0.00
2013-2-5,49.1,45.5,42.8,39.0,33.7,26.6,81,64,45,29.80,29.71,0,0,0,0.28
2013-2-6,47.8,44.3,41.7,39.8,33.7,26.7,82,67,45,29.91,29.68,0,0,0,0.24
2013-2-7,47.3,42.5,39.9,38.0,28.5,20.6,80,58,35,29.91,29.68,0,0,0,0.08
2013-2-8,45.1,42.0,39.2,30.9,27.9,22.8,70,58,42,30.18,30.15,0,0,0,0.08
2013-2-9,45.0,41.2,38.3,36.2,31.8,23.5,81,70,43,30.24,30.15,0,0,0,0.08
2013-2-10,43.0,41.1,38.3,36.7,34.4,29.1,89,77,58,30.27,30.21,0,0,0,0.08
2013-2-11,47.1,42.9,39.7,37.5,31.8,23.1,89,67,39,30.24,30.21,0,0,0,0.08
2013-2-12,51.4,45.6,40.5,40.1,34.5,27.0,87,67,39,30.27,30.15,0,0,0,0.08
2013-2-13,48.0,46.2,44.1,34.9,31.8,28.1,70,57,47,30.39,30.18,0,0,0,0.08
2013-2-14,47.1,44.8,43.0,40.0,36.1,30.0,82,72,59,30.45,30.36,0,0,0,0.04
2013-2-15,55.9,46.5,36.7,41.6,32.2,22.3,88,61,28,30.45,30.06,0,0,0,0.00
2013-2-16,52.3,43.4,35.6,43.8,32.5,25.2,92,67,37,30.09,30.00,0,0,0,0.04
2013-2-17,45.3,40.6,36.0,33.0,27.8,21.2,75,61,39,30.12,30.00,0,0,0,0.00
2013-2-18,45.9,39.7,35.6,35.0,26.5,18.3,87,61,34,30.00,29.65,0,0,0,0.00
2013-2-19,50.5,41.0,31.6,36.5,24.9,15.6,85,56,26,29.91,29.65,0,0,0,0.00
2013-2-20,45.0,38.6,31.8,36.1,29.2,23.0,86,70,43,29.94,29.85,0,0,0,0.12
2013-2-21,45.5,41.3,37.8,36.2,29.3,21.1,90,64,40,29.94,29.88,0,0,0,0.00
2013-2-22,48.7,42.0,34.5,35.4,27.1,17.9,74,56,33,29.91,29.53,0,0,0,0.31
2013-2-23,48.0,38.9,30.7,36.8,24.8,17.0,90,60,29,30.24,29.77,0,0,0,0.00
2013-2-24,45.9,42.2,37.0,32.0,26.7,21.8,73,54,40,30.24,29.83,0,0,0,0.04
2013-2-25,53.4,41.9,31.5,34.2,21.7,2.5,80,50,14,30.18,29.74,0,0,0,0.12
2013-2-26,46.6,39.2,30.0,33.9,24.4,16.4,89,58,30,30.24,30.06,0,0,0,0.00
2013-2-27,48.0,42.4,36.0,37.3,32.0,22.4,87,68,38,30.18,30.09,0,0,0,0.12
2013-2-28,52.5,46.8,41.7,45.8,38.4,34.6,89,74,51,30.18,30.06,0,0,0,0.20
2013-3-1,57.9,53.2,50.2,46.3,36.6,31.6,86,54,38,30.21,30.12,0,0,0,0.00
2013-3-2,55.6,49.4,39.7,38.7,33.2,24.4,77,54,36,30.15,29.94,0,0,0,0.04
2013-3-3,49.5,40.2,32.7,36.0,24.7,16.7,89,58,28,30.21,30.09,0,0,0,0.00
2013-3-4,53.1,40.0,30.2,34.4,20.3,5.7,89,52,16,30.21,29.83,0,0,0,0.00
2013-3-5,50.5,42.0,35.4,37.3,27.1,17.9,82,57,28,29.83,29.62,0,0,0,0.20
2013-3-6,44.8,42.2,40.1,36.1,32.9,27.5,82,70,54,29.77,29.47,0,0,0,0.35
2013-3-7,51.4,44.4,38.8,39.0,32.8,22.5,88,66,33,29.97,29.77,0,0,0,0.12
2013-3-8,53.2,42.4,33.4,39.7,27.4,18.8,92,59,27,30.12,29.97,0,0,0,0.00
2013-3-9,54.3,39.9,30.0,35.5,26.5,19.5,88,63,27,30.39,30.12,0,0,0,0.04
2013-3-10,47.1,41.7,34.2,36.9,30.5,24.7,83,65,42,30.39,30.33,0,0,0,0.00
2013-3-11,49.8,45.7,42.3,42.8,33.8,23.6,86,65,37,30.33,30.03,0,0,0,0.00
2013-3-12,55.6,51.4,46.8,43.2,37.8,32.1,86,60,41,30.03,29.91,0,0,0,0.00
2013-3-13,54.5,52.5,50.5,39.4,35.3,30.9,65,52,44,30.03,29.94,0,0,0,0.00
2013-3-14,50.5,50.3,50.0,37.5,36.2,34.8,62,58,55,29.97,29.94,0,0,0,0.00
2013-3-15,56.5,52.5,49.5,35.7,32.6,29.8,59,47,37,30.03,30.00,0,0,0,0.00
2013-3-16,54.1,46.7,36.1,37.0,29.3,18.6,71,52,26,30.00,29.74,0,0,0,0.00
2013-3-17,50.9,40.1,31.6,31.4,22.7,13.0,83,53,24,30.06,29.85,0,0,0,0.00
2013-3-18,52.5,43.3,36.1,29.4,21.1,12.8,64,43,23,30.12,29.97,0,0,0,0.00
2013-3-19,53.2,41.9,34.2,40.2,27.1,4.9,87,61,16,30.12,29.47,0,0,0,0.67
2013-3-20,53.1,47.4,37.4,46.0,29.8,13.2,91,55,27,29.88,29.23,0,0,0,0.79
2013-3-21,48.2,39.3,33.3,30.2,22.7,15.2,77,53,28,30.09,29.88,0,0,0,0.08
2013-3-22,46.9,39.2,31.1,30.0,19.2,12.1,77,47,27,30.27,30.09,0,0,0,0.04
2013-3-23,48.9,38.7,31.1,30.4,19.4,6.8,78,51,19,30.27,30.18,0,0,0,0.00
2013-3-24,54.0,40.9,30.0,30.0,17.2,2.5,78,45,13,30.18,30.00,0,0,0,0.00
2013-3-25,63.1,47.3,33.1,30.3,15.7,3.2,79,35,11,30.00,29.83,0,0,0,0.00
2013-3-26,61.3,49.2,42.1,26.3,21.7,14.4,48,35,16,29.91,29.85,0,0,0,0.00
2013-3-27,58.8,49.1,42.4,33.5,27.8,20.5,68,45,24,29.88,29.83,0,0,0,0.00
2013-3-28,65.1,50.5,41.4,44.0,35.9,24.8,90,61,23,30.03,29.88,0,0,0,0.31
2013-3-29,66.0,51.7,40.8,43.3,31.9,19.0,87,52,18,30.15,30.03,0,0,0,0.00
2013-3-30,64.9,51.0,36.9,36.5,28.0,16.2,84,46,18,30.15,29.97,0,0,0,0.00
2013-3-31,69.3,54.4,41.7,32.3,23.2,11.1,64,34,12,29.97,29.80,0,0,0,0.00
2013-4-1,60.1,50.1,41.2,40.3,31.5,23.4,75,50,25,30.03,29.85,0,0,0,0.00
2013-4-2,55.0,49.4,42.4,38.4,31.6,27.5,74,51,36,30.06,30.03,0,0,0,0.00
2013-4-3,61.9,51.7,41.4,40.8,31.0,22.8,78,49,25,30.09,29.85,0,0,0,0.00
2013-4-4,54.7,51.3,47.8,49.9,39.8,30.4,92,65,49,29.85,29.53,0,0,0,0.51
2013-4-5,58.3,52.6,48.7,46.2,37.5,29.0,91,58,35,29.71,29.59,0,0,0,0.20
2013-4-6,56.8,49.7,45.9,47.0,31.4,20.8,93,52,26,29.77,29.56,0,0,0,0.24
2013-4-7,47.3,44.5,41.2,37.0,33.4,27.3,77,65,48,29.80,29.41,0,0,0,0.91
2013-4-8,55.0,47.7,42.6,40.3,33.5,23.1,86,61,31,30.15,29.80,0,0,0,0.08
2013-4-9,54.9,47.9,40.8,37.9,28.6,19.9,81,51,26,30.21,30.03,0,0,0,0.00
2013-4-10,59.9,52.4,46.6,45.9,32.7,23.7,88,50,28,30.12,29.80,0,0,0,0.16
2013-4-11,52.5,48.3,44.2,31.8,26.1,18.0,58,43,28,30.18,30.09,0,0,0,0.04
2013-4-12,44.6,42.9,41.2,31.2,30.1,29.2,64,60,59,30.09,30.06,0,0,0,0.00
2013-4-17,55.9,50.4,46.6,28.6,25.6,20.8,49,38,26,30.33,30.27,0,0,0,0.43
2013-4-18,52.3,48.0,43.5,36.9,30.0,24.3,59,50,42,30.33,30.06,0,0,0,0.00
2013-4-19,55.0,52.0,50.4,47.4,41.4,35.9,86,68,54,30.06,29.94,0,0,0,0.31
2013-4-20,55.2,49.7,46.6,45.7,39.8,30.2,94,70,40,30.15,30.06,0,0,0,0.08
2013-4-21,53.8,47.3,39.2,42.8,32.2,20.7,83,58,29,30.27,30.12,0,0,0,0.04
2013-4-22,61.0,48.4,35.1,36.2,16.7,-0.2,86,35,11,30.42,30.27,0,0,0,0.00
2013-4-23,65.8,47.7,32.7,24.2,13.9,4.1,64,31,10,30.30,30.12,0,0,0,0.00
2013-4-24,70.3,53.5,36.9,29.5,17.7,4.8,70,30,9,30.21,29.94,0,0,0,0.00
2013-4-25,71.4,55.6,39.7,30.1,19.4,8.5,58,29,9,30.03,29.94,0,0,0,0.00
2013-4-26,66.4,53.1,43.0,43.2,30.9,14.4,84,46,16,30.15,30.03,0,0,0,0.00
2013-4-27,58.8,55.8,51.6,37.8,31.5,28.2,59,40,33,30.09,30.03,0,0,0,0.00
2013-4-28,57.6,51.1,47.7,41.2,33.6,24.0,75,53,33,30.09,29.83,0,0,0,0.08
2013-4-29,57.4,49.4,43.0,37.5,23.0,7.5,70,39,14,30.03,29.77,0,0,0,0.00
2013-4-30,53.6,45.6,35.4,29.8,20.5,12.7,70,39,21,30.33,30.03,0,0,0,0.00
2013-5-1,65.5,49.3,33.4,29.3,16.0,3.7,76,33,10,30.47,30.33,0,0,0,0.00
2013-5-2,67.6,54.7,39.2,27.8,15.8,6.0,56,25,10,30.45,30.24,0,0,0,0.00
2013-5-3,70.9,60.5,50.5,28.3,22.7,13.5,38,24,12,30.27,30.09,0,0,0,0.00
2013-5-4,79.9,65.5,53.8,28.4,18.8,6.7,36,19,7,30.12,29.88,0,0,0,0.00
2013-5-5,84.2,66.8,50.5,30.8,19.9,8.6,38,20,6,29.88,29.65,0,0,0,0.00
2013-5-6,87.1,66.8,49.8,34.2,23.7,8.8,54,25,6,29.74,29.65,0,0,0,0.00
2013-5-7,72.0,58.7,51.1,41.3,34.5,30.1,66,42,22,29.88,29.71,0,0,0,0.00
2013-5-8,64.2,55.9,49.8,42.0,36.7,32.9,66,50,33,30.03,29.88,0,0,0,0.00
2013-5-9,70.5,56.2,45.3,43.8,36.7,29.9,76,51,23,30.12,30.00,0,0,0,0.00
2013-5-10,79.5,60.7,45.1,42.9,32.3,14.4,76,40,10,30.09,30.00,0,0,0,0.00
2013-5-11,81.1,62.2,52.0,38.5,32.5,21.6,54,36,12,30.06,29.88,0,0,0,0.00
2013-5-12,68.0,61.8,58.3,53.2,41.2,33.8,80,49,31,29.94,29.88,0,0,0,0.00
2013-5-13,64.2,57.5,47.8,44.8,33.6,15.3,65,42,19,30.06,29.80,0,0,0,0.00
2013-5-14,64.4,54.7,46.9,34.6,26.0,14.8,56,36,16,30.12,30.00,0,0,0,0.00
2013-5-15,64.6,54.6,45.9,46.4,32.2,22.9,74,45,21,30.03,29.88,0,0,0,0.00
2013-5-16,54.9,54.6,54.3,47.6,46.8,45.7,77,75,72,29.88,29.88,0,0,0,0.00
2013-5-18,61.9,57.3,53.1,35.1,31.7,27.4,50,38,28,30.15,30.06,0,0,0,0.00
2013-5-19,64.8,56.5,48.6,43.4,34.5,25.9,68,45,25,30.30,30.15,0,0,0,0.00
2013-5-20,67.3,55.4,45.1,41.0,33.4,27.7,72,46,24,30.24,29.80,0,0,0,0.00
2013-5-21,56.1,51.0,47.5,43.3,36.6,30.0,75,59,38,29.80,29.68,0,0,0,0.00
2013-5-22,52.9,50.2,47.7,43.4,38.5,32.4,78,65,47,29.83,29.74,0,0,0,0.00
2013-5-23,55.9,49.5,45.9,39.1,32.8,23.4,75,54,31,29.88,29.83,0,0,0,0.00
2013-5-24,61.2,53.8,45.0,42.0,32.8,24.0,79,48,25,29.91,29.85,0,0,0,0.00
2013-5-25,64.4,55.6,50.9,41.8,32.4,22.1,66,43,23,29.91,29.85,0,0,0,0.00
2013-5-26,63.9,55.2,50.4,45.5,39.5,31.2,78,57,34,29.88,29.83,0,0,0,0.00
2013-5-27,58.5,55.2,51.8,52.3,44.2,35.6,82,67,50,29.83,29.59,0,0,0,0.00
2013-5-28,64.0,56.7,52.3,42.1,33.6,24.6,66,43,25,29.77,29.65,0,0,0,0.00
2013-5-29,56.8,53.2,51.3,44.7,40.1,33.3,75,62,46,29.85,29.59,0,0,0,0.00
2013-5-30,60.6,54.5,49.1,43.4,35.3,27.0,77,50,30,30.12,29.85,0,0,0,0.00
2013-5-31,68.2,56.8,48.7,42.0,32.2,20.3,73,43,17,30.24,30.12,0,0,0,0.00
2013-6-1,71.8,59.5,48.7,39.3,31.0,25.0,61,37,19,30.15,29.94,0,0,0,0.00
2013-6-2,68.4,61.1,53.4,39.3,32.0,25.9,56,35,23,29.97,29.91,0,0,0,0.00
2013-6-3,73.8,57.9,47.7,45.7,36.7,29.6,77,48,21,30.00,29.94,0,0,0,0.00
2013-6-4,78.8,63.4,46.8,41.5,28.4,14.9,75,34,10,30.03,29.91,0,0,0,0.00
2013-6-5,80.1,64.0,50.2,40.3,34.6,24.4,58,36,15,29.97,29.91,0,0,0,0.00
2013-6-6,81.0,64.9,50.2,41.3,30.1,14.9,66,32,9,29.94,29.88,0,0,0,0.00
2013-6-7,66.9,60.0,54.9,40.2,34.6,27.4,56,39,26,30.03,29.91,0,0,0,0.00
2013-6-8,68.0,62.0,55.4,33.7,31.0,28.1,41,31,23,30.06,30.00,0,0,0,0.00
2013-6-9,64.2,57.0,51.6,37.1,32.7,26.6,53,40,26,30.00,29.91,0,0,0,0.00
2013-6-10,67.5,57.9,46.4,38.2,31.2,26.6,66,38,23,29.91,29.77,0,0,0,0.00
2013-6-11,66.0,56.6,48.4,37.8,31.7,25.8,56,40,24,29.97,29.83,0,0,0,0.00
2013-6-12,64.4,55.4,46.2,43.2,36.3,26.2,70,51,24,30.03,29.97,0,0,0,0.00
2013-6-13,66.7,59.4,52.2,41.6,34.0,27.2,65,41,23,30.09,30.03,0,0,0,5.90
2013-6-14,54.0,53.0,52.0,39.1,37.9,36.2,61,56,52,30.09,29.94,0,0,0,5.90
2013-6-15,75.7,62.0,47.3,48.8,34.1,20.7,85,40,15,29.94,29.80,0,0,0,0.00
2013-6-16,74.5,61.6,50.0,42.5,36.8,31.9,67,41,24,29.97,29.88,0,0,0,0.00
2013-6-17,76.3,62.0,50.7,47.7,35.9,19.8,73,42,13,29.97,29.77,0,0,0,0.00
2013-6-18,73.8,62.9,55.0,48.8,32.7,14.2,79,39,11,29.85,29.77,0,0,0,0.00
2013-6-19,65.3,58.9,50.4,43.7,37.3,32.5,68,46,30,30.24,29.83,0,0,0,0.00
2013-6-20,61.7,57.1,54.5,49.3,42.4,33.9,81,59,36,31.01,30.24,0,0,0,0.00
2013-6-21,69.1,60.2,54.1,49.7,38.6,28.4,82,49,23,31.01,30.86,0,0,0,0.00
2013-6-22,77.5,63.3,49.6,45.8,35.1,23.4,73,40,15,31.01,31.01,0,0,0,0.00
2013-6-23,71.1,64.0,58.5,50.0,43.1,35.3,66,48,28,31.01,31.01,0,0,0,0.00
2013-6-24,68.2,62.3,58.3,57.4,43.7,31.4,89,54,27,31.01,31.01,0,0,0,0.00
2013-6-25,72.3,61.9,57.2,54.5,44.6,31.0,90,57,23,31.01,31.01,0,0,0,0.00
2013-6-26,68.9,62.2,57.4,55.1,46.1,36.0,89,59,33,31.01,20.23,0,0,0,0.00
2013-6-27,67.8,63.1,58.8,57.6,50.5,41.9,82,64,46,30.09,17.72,0,0,0,5.90
2013-6-28,86.7,70.6,57.6,56.0,44.9,29.8,85,45,13,30.09,29.91,0,0,0,0.00
2013-6-29,84.2,71.2,62.8,55.1,44.0,37.1,70,40,20,30.00,29.88,0,0,0,0.00
2013-6-30,92.1,74.8,56.8,46.3,38.0,18.1,62,30,9,29.91,29.74,0,0,0,0.00
2013-7-1,86.4,72.9,61.3,46.2,40.4,36.3,54,32,19,29.91,29.80,0,0,0,0.00
2013-7-2,80.8,69.0,59.0,46.0,38.1,22.0,59,34,12,30.00,29.91,0,0,0,0.00
2013-7-3,77.9,66.7,59.5,41.0,33.0,19.6,49,30,13,30.03,29.94,0,0,0,0.00
2013-7-4,69.6,62.9,57.6,40.6,36.4,30.2,50,38,24,30.00,29.91,0,0,0,0.00
2013-7-5,74.5,63.6,52.3,44.0,37.7,32.3,67,41,23,29.91,29.83,0,0,0,0.00
2013-7-6,78.4,66.2,53.1,45.0,33.8,21.5,68,35,13,29.88,29.77,0,0,0,0.00
2013-7-7,75.6,64.6,53.6,48.5,40.4,35.5,67,43,25,29.85,29.77,0,0,0,0.00
2013-7-8,80.8,65.0,57.6,47.7,40.7,32.3,69,44,20,29.97,29.83,0,0,0,0.00
2013-7-9,84.0,68.5,54.3,46.1,36.0,22.8,69,34,11,30.00,29.88,0,0,0,0.00
2013-7-10,72.1,64.4,57.7,39.7,36.6,32.2,49,36,26,29.94,29.85,0,0,0,5.90
2013-7-11,67.5,60.5,56.1,34.5,31.4,27.0,43,34,23,29.97,29.88,0,0,0,0.00
2013-7-12,67.1,58.4,50.5,39.6,34.7,28.4,59,42,24,30.00,29.91,0,0,0,0.00
2013-7-13,77.4,62.5,46.9,41.7,28.1,13.8,73,33,10,30.09,30.00,0,0,0,0.00
2013-7-14,80.8,64.8,48.6,40.5,28.4,14.9,66,30,9,30.03,29.88,0,0,0,0.00
2013-7-15,81.5,68.7,52.2,39.9,25.4,9.6,58,24,7,29.94,29.77,0,0,0,0.00
2013-7-16,88.3,72.8,56.8,35.8,23.1,8.6,36,18,5,29.80,29.71,0,0,0,0.00
2013-7-17,70.5,65.8,61.2,44.9,38.5,34.5,53,37,27,30.09,29.77,0,0,0,0.00
2013-7-18,77.2,65.6,57.2,41.7,37.5,32.9,54,37,21,30.12,30.00,0,0,0,0.00
2013-7-19,80.2,64.3,52.3,49.2,39.8,34.1,77,44,21,30.06,29.91,0,0,0,0.00
2013-7-20,73.9,62.5,56.5,54.5,43.5,37.0,89,53,31,29.97,29.85,0,0,0,0.00
2013-7-21,74.3,62.3,52.9,50.8,42.3,38.2,79,50,28,29.88,29.80,0,0,0,0.00
2013-7-22,78.3,64.8,55.8,55.3,42.8,34.7,92,49,22,29.94,29.83,0,0,0,0.00
2013-7-23,86.9,67.6,54.5,47.4,34.7,15.4,72,37,8,29.97,29.85,0,0,0,0.00
2013-7-24,84.0,68.2,53.6,43.0,34.1,17.6,63,32,9,29.94,29.88,0,0,0,0.00
2013-7-25,84.6,67.0,51.3,41.3,34.0,22.7,63,33,11,30.00,29.91,0,0,0,0.00
2013-7-26,84.6,67.5,51.8,40.8,30.7,15.8,62,30,9,30.03,29.94,0,0,0,0.00
2013-7-27,77.0,63.8,51.3,39.2,32.9,24.4,59,34,15,30.06,29.88,0,0,0,0.00
2013-7-28,69.6,60.1,52.7,49.2,39.4,35.2,80,48,30,29.91,29.83,0,0,0,0.00
2013-7-29,74.1,63.3,53.1,45.5,38.1,32.0,69,42,22,29.91,29.83,0,0,0,0.00
2013-7-30,75.9,63.0,53.1,48.3,40.0,34.5,73,46,23,30.03,29.88,0,0,0,0.00
2013-7-31,69.6,61.2,53.6,51.1,43.8,38.5,79,54,35,30.03,29.88,0,0,0,0.00
2013-8-1,68.2,62.5,57.0,51.8,42.4,37.0,82,50,33,29.94,29.91,0,0,0,0.00
2013-8-2,62.2,60.5,58.8,55.0,48.2,42.1,82,65,51,30.03,29.94,0,0,0,0.00
2013-8-3,75.0,65.0,58.5,54.9,44.6,32.9,82,52,23,30.03,29.94,0,0,0,0.00
2013-8-4,79.7,66.3,53.1,49.9,40.7,34.4,79,43,21,29.97,29.83,0,0,0,0.00
2013-8-5,84.7,68.0,54.3,45.7,38.9,30.9,68,38,16,29.91,29.83,0,0,0,0.00
2013-8-6,84.4,67.0,51.8,41.6,33.6,21.3,64,34,11,29.91,29.80,0,0,0,0.00
2013-8-7,85.5,67.1,53.1,43.4,34.1,16.6,66,34,8,29.91,29.83,0,0,0,0.00
2013-8-8,84.7,66.5,55.9,46.7,39.0,32.5,63,39,16,29.94,29.83,0,0,0,0.00
2013-8-9,81.7,67.5,54.9,45.7,38.3,31.7,68,38,17,29.85,29.71,0,0,0,0.00
2013-8-10,79.9,66.2,61.0,57.4,47.4,39.4,83,54,25,29.88,29.77,0,0,0,0.00
2013-8-11,75.0,63.6,58.1,49.7,42.1,36.3,72,47,26,29.97,29.88,0,0,0,0.00
2013-8-12,76.6,64.4,56.1,45.1,39.4,31.4,59,42,20,29.97,29.88,0,0,0,0.00
2013-8-13,81.1,65.8,54.7,48.2,38.8,31.2,71,40,19,30.00,29.83,0,0,0,0.00
2013-8-14,81.1,64.9,54.0,58.5,42.3,16.6,81,48,9,29.85,29.77,0,0,0,0.00
2013-8-15,68.9,65.8,63.1,58.6,53.1,49.2,82,64,50,29.88,29.83,0,0,0,5.90
2013-8-16,63.5,63.2,63.1,55.3,54.7,54.0,75,74,72,29.88,29.85,0,0,0,0.00
2013-8-19,71.2,65.5,61.9,38.5,36.0,33.2,38,34,25,30.00,29.94,0,0,0,0.00
2013-8-20,77.0,65.8,55.4,39.3,31.2,14.9,47,30,10,30.06,29.97,0,0,0,0.00
2013-8-21,80.4,65.1,49.1,43.4,31.7,19.6,74,34,12,29.97,29.83,0,0,0,0.00
2013-8-22,84.2,68.2,51.4,41.3,32.2,16.6,60,30,9,29.85,29.68,0,0,0,0.00
2013-8-23,73.9,65.5,60.6,44.1,38.9,30.5,52,39,21,29.77,29.71,0,0,0,5.90
2013-8-24,74.7,64.8,56.3,41.3,37.7,33.6,57,38,24,29.83,29.77,0,0,0,5.90
2013-8-25,75.0,62.7,51.8,46.7,38.5,30.8,73,44,21,29.85,29.77,0,0,0,5.90
2013-8-26,75.6,62.9,54.9,51.2,40.3,19.9,71,48,13,29.85,29.74,0,0,0,5.90
2013-8-27,77.2,66.2,59.9,53.6,44.2,30.8,78,49,22,29.85,29.68,0,0,0,5.90
2013-8-28,77.7,67.6,60.1,57.3,47.5,35.3,90,53,22,29.80,29.74,0,0,0,5.90
2013-8-29,72.1,66.2,63.5,62.8,56.0,47.5,87,71,42,29.88,29.74,0,0,0,5.90
2013-8-30,75.7,66.0,57.6,56.1,42.4,31.8,85,45,21,30.03,29.88,0,0,0,5.90
2013-8-31,78.3,64.9,52.7,53.3,40.1,30.0,82,45,18,29.97,29.74,0,0,0,5.90
2013-9-1,79.9,65.3,55.2,49.0,41.7,33.8,74,46,21,29.80,29.68,0,0,0,5.90
2013-9-2,78.3,65.9,57.7,50.3,41.8,34.6,69,44,22,29.83,29.74,0,0,0,5.90
2013-9-3,75.4,64.7,58.6,58.5,49.6,38.5,89,61,29,29.91,29.83,0,0,0,5.90
2013-9-4,71.6,63.5,56.3,55.7,47.7,41.7,86,59,35,29.94,29.88,0,0,0,5.90
2013-9-5,71.1,62.8,57.9,57.3,50.8,39.1,90,68,33,29.94,29.83,0,0,0,5.90
2013-9-6,69.1,63.7,61.2,60.0,54.7,46.7,92,74,47,30.00,29.83,0,0,0,5.90
2013-9-7,72.7,63.9,58.5,57.5,48.7,39.9,85,61,32,30.00,29.91,0,0,0,5.90
2013-9-8,77.2,64.5,53.8,53.5,44.8,37.5,86,54,24,30.00,29.91,0,0,0,5.90
2013-9-9,78.8,63.6,55.9,49.5,44.4,35.6,78,53,22,29.97,29.85,0,0,0,5.90
2013-9-10,78.8,64.8,51.8,51.6,43.3,36.7,82,50,23,29.88,29.77,0,0,0,5.90
2013-9-11,91.2,71.9,58.1,56.5,39.2,17.5,82,39,7,29.83,29.77,0,0,0,5.90
2013-9-12,78.4,67.4,59.0,57.6,45.3,40.2,93,48,26,29.88,29.80,0,0,0,5.90
2013-9-13,60.3,59.3,58.6,46.7,46.3,45.8,64,62,60,29.83,29.83,0,0,0,0.00
2013-9-17,64.0,59.5,52.7,43.9,39.8,34.3,71,49,34,29.83,29.77,0,0,0,5.90
2013-9-18,68.0,57.2,49.1,51.2,38.6,24.9,85,55,22,29.97,29.83,0,0,0,0.00
2013-9-19,77.9,60.4,47.5,46.7,33.9,14.5,81,45,10,29.94,29.65,0,0,0,0.00
2013-9-20,70.9,59.7,49.5,53.7,40.9,32.0,84,54,25,29.65,29.47,0,0,0,0.00
2013-9-21,67.1,58.8,53.1,53.3,44.9,32.5,86,63,29,29.62,29.53,0,0,0,0.00
2013-9-22,61.3,57.3,52.3,51.4,46.2,41.2,86,67,50,29.62,29.44,0,0,0,0.00
2013-9-23,63.3,56.2,52.2,46.7,42.8,33.5,75,62,34,29.85,29.62,0,0,0,0.00
2013-9-24,59.7,53.3,48.6,46.5,42.3,31.9,90,68,35,29.85,29.74,0,0,0,0.00
2013-9-25,62.4,53.4,46.4,45.0,37.1,24.9,82,58,25,29.94,29.77,0,0,0,0.00
2013-9-26,62.6,50.6,40.8,43.5,36.3,28.0,85,61,28,30.03,29.91,0,0,0,0.00
2013-9-27,58.8,54.3,46.0,47.6,42.0,36.8,86,64,46,30.00,29.74,0,0,0,0.00
2013-9-28,60.1,56.0,52.0,55.8,48.6,38.8,95,77,59,29.74,29.21,0,0,0,0.00
2013-9-29,55.2,53.3,50.0,49.5,44.5,32.9,87,72,50,29.41,29.03,0,0,0,0.00
2013-9-30,60.1,53.1,47.8,46.0,36.9,26.8,86,57,29,29.74,29.29,0,0,0,0.00
2013-10-1,58.6,52.0,48.0,41.7,35.2,24.4,77,55,28,29.97,29.80,0,0,0,0.00
2013-10-2,54.1,50.5,45.0,42.9,39.0,31.2,79,65,42,30.09,29.94,0,0,0,0.00
2013-10-3,58.5,50.3,42.8,47.3,37.7,29.7,88,65,36,30.36,30.09,0,0,0,0.00
2013-10-4,62.6,49.1,39.7,44.0,36.5,28.0,94,66,28,30.39,30.24,0,0,0,0.00
2013-10-5,71.6,53.4,42.1,43.8,32.2,12.8,87,52,11,30.24,30.03,0,0,0,0.00
2013-10-6,71.6,55.8,40.8,47.5,29.8,8.2,89,46,9,30.03,29.74,0,0,0,0.00
2013-10-7,63.0,55.6,49.5,47.5,38.1,29.0,76,53,30,29.91,29.77,0,0,0,0.00
2013-10-8,58.6,50.1,44.1,48.0,35.8,25.1,89,60,29,29.97,29.85,0,0,0,0.00
2013-10-9,59.0,49.5,40.3,41.0,32.0,24.5,85,53,28,30.03,29.85,0,0,0,0.00
2013-10-10,59.2,53.4,48.4,39.4,34.7,30.0,70,51,34,29.97,29.85,0,0,0,5.90
2013-10-11,48.7,48.4,48.2,39.4,38.4,37.6,70,68,66,29.97,29.97,0,0,0,0.00
2013-10-17,60.1,51.0,41.5,45.9,34.8,30.2,84,56,34,30.18,30.12,0,0,0,0.00
2013-10-18,58.8,48.1,40.1,44.7,35.2,31.7,87,63,37,30.15,30.03,0,0,0,5.90
2013-10-19,50.2,46.5,40.3,43.9,40.6,35.0,88,80,60,30.09,30.06,0,0,0,0.00
2013-10-20,50.2,48.6,47.7,43.5,41.2,36.7,83,76,61,30.12,30.06,0,0,0,0.00
2013-10-21,51.4,48.6,47.1,45.9,43.3,37.1,93,82,60,30.06,30.00,0,0,0,0.00
2013-10-22,59.7,49.8,46.8,45.8,40.9,32.2,92,74,36,30.03,29.94,0,0,0,0.00
2013-10-23,61.0,49.9,43.0,44.0,38.4,31.8,90,67,36,29.94,29.88,0,0,0,0.00
2013-10-24,52.5,46.8,40.6,46.4,40.2,34.3,94,78,52,30.03,29.91,0,0,0,0.00
2013-10-25,53.2,49.7,47.7,47.7,42.5,34.1,95,78,49,30.21,30.03,0,0,0,0.00
2013-10-26,56.7,50.9,47.7,44.1,37.1,29.3,81,61,37,30.24,30.09,0,0,0,0.00
2013-10-27,60.8,53.3,47.8,44.9,31.9,17.2,85,51,22,30.09,29.80,0,0,0,0.00
2013-10-28,58.5,53.6,45.1,17.5,8.0,0.4,23,16,12,29.85,29.80,0,0,0,0.00
2013-10-29,57.4,43.8,33.6,28.9,20.2,8.1,67,41,17,29.94,29.83,0,0,0,0.00
2013-10-30,55.0,46.0,35.1,37.8,29.7,24.1,80,55,37,30.00,29.91,0,0,0,0.00
2013-10-31,54.7,51.0,49.1,42.0,36.2,30.0,74,57,46,30.15,29.94,0,0,0,0.00
2013-11-1,59.2,52.4,45.7,46.4,38.7,31.3,85,61,36,30.15,29.71,0,0,0,0.00
2013-11-2,53.1,49.1,40.5,48.8,36.4,26.2,89,63,41,29.77,29.32,0,0,0,5.90
2013-11-3,51.3,41.0,33.8,39.1,29.8,19.3,89,67,30,30.00,29.77,0,0,0,0.00
2013-11-4,48.0,42.5,33.6,42.1,28.4,19.3,92,60,34,30.09,29.94,0,0,0,0.00
2013-11-5,48.7,46.3,43.9,43.5,39.3,27.1,87,77,50,30.15,29.91,0,0,0,0.00
2013-11-6,51.1,46.4,40.5,47.4,38.1,27.7,95,74,42,30.21,29.91,0,0,0,0.00
2013-11-7,54.1,49.3,46.9,49.5,42.7,31.9,95,79,52,29.91,29.59,0,0,0,0.00
2013-11-8,53.8,47.3,39.0,45.9,37.1,27.0,93,70,37,30.03,29.85,0,0,0,0.00
2013-11-9,51.1,45.5,39.2,44.3,35.7,27.1,91,70,40,30.03,29.97,0,0,0,0.00
2013-11-10,50.5,47.3,45.1,41.8,34.8,28.8,85,63,45,30.06,30.00,0,0,0,0.00
2013-11-11,57.6,47.3,41.0,40.8,34.0,24.6,85,62,28,30.06,29.88,0,0,0,0.00
2013-11-12,57.9,51.5,42.1,47.8,42.9,36.2,94,74,50,30.24,29.91,0,0,0,0.00
2013-11-13,55.4,51.7,49.3,45.4,37.3,28.6,81,59,36,30.33,30.21,0,0,0,5.90
2013-11-14,51.1,45.9,41.5,41.7,37.1,34.1,81,72,53,30.21,29.94,0,0,0,5.90
2013-11-15,48.6,45.2,42.4,41.0,36.7,29.8,90,73,52,29.94,29.23,0,0,0,0.00
2013-11-16,49.3,41.7,36.3,43.5,30.7,22.0,94,68,36,29.65,29.23,0,0,0,0.00
2013-11-17,52.5,43.8,34.0,44.5,33.4,21.7,96,68,42,29.77,29.65,0,0,0,0.00
2013-11-18,52.2,48.5,42.3,47.3,42.6,36.7,92,80,72,29.77,29.41,0,0,0,0.00
2013-11-19,52.3,43.2,36.7,47.0,28.7,6.4,83,58,26,29.97,29.41,0,0,0,0.00
2013-11-20,45.3,37.3,30.9,23.5,14.1,9.1,56,39,28,30.39,29.97,0,0,0,0.00
2013-11-21,44.4,34.6,28.0,28.5,16.2,4.2,78,50,20,30.56,30.39,0,0,0,0.00
2013-11-22,46.9,36.6,28.8,30.5,20.7,12.9,90,56,29,30.53,30.36,0,0,0,0.00
2013-11-23,50.2,38.5,30.6,41.3,26.1,16.6,95,65,28,30.36,30.09,0,0,0,0.00
2013-11-24,52.3,39.5,33.4,46.4,29.5,21.6,97,71,32,30.15,30.06,0,0,0,0.00
2013-11-25,51.6,39.5,34.2,38.4,29.7,21.8,95,71,32,30.21,30.15,0,0,0,0.00
2013-11-26,51.1,41.8,32.7,37.4,28.8,19.0,96,64,29,30.15,29.97,0,0,0,0.00
2013-11-27,58.5,45.2,35.4,40.2,29.1,21.6,82,57,26,29.97,29.85,0,0,0,0.00
2013-11-28,42.4,36.9,32.2,39.8,33.8,29.0,94,88,79,30.09,29.91,0,0,0,0.00
2013-11-29,47.1,42.0,34.3,43.6,36.0,30.8,95,80,57,30.21,30.06,0,0,0,0.00
2013-11-30,50.2,48.3,46.2,43.6,36.7,30.6,88,65,48,30.21,29.94,0,0,0,0.00
2013-12-1,54.0,49.2,42.4,47.8,37.3,26.3,91,65,38,29.94,29.62,0,0,0,0.00
2013-12-2,47.8,38.5,31.8,31.4,22.0,12.4,78,53,29,29.97,29.71,0,0,0,0.00
2013-12-3,40.6,35.2,32.5,11.5,2.7,-4.7,39,25,16,30.21,29.97,0,0,0,0.00
2013-12-4,41.5,30.9,23.0,17.2,8.4,-0.3,59,40,19,30.24,30.18,0,0,0,0.00
2013-12-5,34.0,26.8,21.0,19.1,12.9,7.4,74,57,33,30.24,30.09,0,0,0,0.00
2013-12-6,34.0,27.4,21.9,11.3,-3.3,-12.9,53,27,17,30.15,30.03,0,0,0,0.00
2013-12-7,32.7,24.4,16.2,-1.0,-8.6,-13.8,46,23,15,30.33,30.15,0,0,0,0.00
2013-12-8,32.5,23.8,15.4,7.3,1.4,-7.4,56,39,20,30.47,30.33,0,0,0,0.00
2013-12-9,32.0,27.6,18.9,14.7,9.3,3.7,70,47,31,30.47,30.39,0,0,0,0.00
2013-12-10,37.6,33.1,27.3,25.7,20.2,11.1,75,59,48,30.39,30.30,0,0,0,0.00
2013-12-11,37.6,33.2,29.8,34.3,25.6,23.1,89,74,62,30.33,30.06,0,0,0,5.90
2013-12-12,42.6,38.2,31.6,34.7,28.4,18.3,96,69,39,30.06,29.91,0,0,0,0.00
2013-12-13,46.9,43.7,41.0,42.5,35.9,31.1,87,74,55,30.30,30.00,0,0,0,0.00
2013-12-14,48.2,46.1,42.8,41.4,34.7,29.6,86,65,49,30.33,30.18,0,0,0,0.00
2013-12-15,50.5,47.6,44.2,40.5,36.9,29.9,78,67,51,30.36,30.18,0,0,0,0.00
2013-12-16,50.9,43.4,34.9,43.6,34.2,26.5,90,72,41,30.39,30.15,0,0,0,0.00
2013-12-17,41.9,40.5,37.6,37.9,35.2,31.6,92,81,67,30.18,30.00,0,0,0,0.00
2013-12-18,44.2,40.9,35.8,38.9,26.5,10.2,86,60,25,30.06,29.91,0,0,0,0.00
2013-12-19,45.1,36.2,32.4,19.7,7.1,-1.9,50,30,17,30.24,30.03,0,0,0,0.00
2013-12-20,40.5,36.6,32.5,36.6,26.7,14.0,86,68,42,30.09,29.59,0,0,0,0.00
2013-12-21,43.2,41.7,40.5,38.6,37.0,35.4,90,83,76,30.06,29.74,0,0,0,0.00
2013-12-22,49.3,44.6,41.7,47.3,42.1,37.2,97,91,72,30.18,30.06,0,0,0,0.00
2013-12-23,57.6,47.6,35.4,41.4,34.4,25.1,83,61,38,30.39,30.00,0,0,0,0.00
2013-12-24,46.8,37.5,30.6,38.8,29.0,21.2,94,74,37,30.50,30.39,0,0,0,0.00
2013-12-25,44.2,36.7,30.4,40.3,28.4,22.7,96,74,43,30.45,30.30,0,0,0,0.00
2013-12-26,43.0,36.6,32.2,34.3,27.9,23.1,87,72,48,30.30,30.09,0,0,0,0.00
2013-12-27,45.1,38.9,32.0,39.0,33.5,25.6,92,81,70,30.27,30.00,0,0,0,0.00
2013-12-28,46.9,41.0,33.4,42.4,33.9,24.9,95,77,42,30.42,30.27,0,0,0,0.00
2013-12-29,43.5,40.2,34.2,40.2,34.5,29.7,97,81,59,30.39,30.21,0,0,0,0.00
2013-12-30,43.7,41.3,39.4,40.3,35.0,31.2,94,79,62,30.21,30.00,0,0,0,0.00
2013-12-31,46.0,42.4,38.7,41.9,35.4,30.3,92,77,55,30.27,30.09,0,0,0,0.00
2014-1-1,45.7,41.6,38.1,41.3,35.6,30.4,95,80,56,30.30,30.15,0,0,0,0.00
2014-1-2,53.1,45.8,40.5,44.3,33.5,16.1,93,67,23,30.15,29.77,0,0,0,0.00